Location: Columbus
(29.5618°N, 96.6770°W)
Time: 13:20:57
(UTC-05:00)

Iridium 59 - Visible Passes

Search period start: 30 May 2016 00:00
Search period end: 09 June 2016 00:00
Orbit: 776 x 779 km, 86.4° (Epoch: 29 May)

Date Brightness Start Highest point End Pass type
(mag) Time Alt. Az. Time Alt. Az. Time Alt. Az.
30 May 6.7 02:29:16 10° N 02:31:46 29° N 02:31:46 29° N visible
31 May 7.0 01:56:00 10° NNE 01:58:14 24° NNE 01:58:14 24° NNE visible
31 May 7.4 03:38:20 10° NW 03:38:42 11° NW 03:38:42 11° NW visible
01 Jun 7.5 01:23:18 10° NNE 01:24:43 16° NE 01:24:43 16° NE visible
01 Jun 7.1 03:03:27 10° NNW 03:05:11 19° NW 03:05:11 19° NW visible
02 Jun 6.8 02:29:25 10° N 02:31:40 26° NNW 02:31:40 26° NNW visible
03 Jun 6.9 01:55:53 10° N 01:58:10 26° NNE 01:58:10 26° NNE visible
04 Jun 7.2 01:22:48 10° NNE 01:24:41 20° NE 01:24:41 20° NE visible
04 Jun 7.4 03:04:11 10° NW 03:05:08 14° NW 03:05:08 14° NW visible
05 Jun 7.6 00:50:29 10° NE 00:51:11 12° NE 00:51:11 12° NE visible
05 Jun 7.0 02:29:45 10° NNW 02:31:39 21° NNW 02:31:39 21° NNW visible
06 Jun 6.9 01:55:56 10° N 01:58:10 26° N 01:58:10 26° N visible
07 Jun 7.0 01:22:33 10° N 01:24:41 24° NNE 01:24:41 24° NNE visible
08 Jun 7.3 00:49:43 10° NNE 00:51:13 17° NE 00:51:13 17° NE visible
08 Jun 7.3 02:30:16 10° NNW 02:31:41 16° NW 02:31:41 16° NW visible
